| time (UTC) | temp F | wind direction | speed MPH | gust MPH | rain 1hr in | rain 24hr in | rain mn in | humidity % | barometer mb |
| 20260504000758 | 68 | 182 | 5.0 | 9.0 | 0.00 | 0.00 | 0.00 | 44 | 1009.8 |
| 20260504000254 | 68 | 173 | 4.0 | 6.0 | 0.00 | 0.00 | 0.00 | 44 | 1010.1 |
| 20260503235753 | 68 | 169 | 4.0 | 6.0 | 0.00 | 0.00 | 0.00 | 45 | 1009.6 |
| 20260503235250 | 68 | 194 | 3.0 | 3.0 | 0.00 | 0.00 | 0.00 | 44 | 1009.7 |
| 20260503234747 | 67 | 190 | 9.0 | 10.0 | 0.00 | 0.00 | 0.00 | 44 | 1009.7 |
| 20260503234245 | 67 | 197 | 3.0 | 6.0 | 0.00 | 0.00 | 0.00 | 44 | 1009.9 |
| 20260503233742 | 67 | 185 | 3.0 | 3.0 | 0.00 | 0.00 | 0.00 | 45 | 1009.8 |
| 20260503233238 | 67 | 202 | 3.0 | 5.0 | 0.00 | 0.00 | 0.00 | 44 | 1009.8 |
| 20260503232735 | 68 | 211 | 3.0 | 5.0 | 0.00 | 0.00 | 0.00 | 43 | 1009.9 |
| 20260503232232 | 67 | 203 | 4.0 | 5.0 | 0.00 | 0.00 | 0.00 | 43 | 1010.0 |
| 20260503231730 | 67 | 245 | 10.0 | 11.0 | 0.00 | 0.00 | 0.00 | 43 | 1010.1 |
| 20260503231226 | 67 | 185 | 9.0 | 13.0 | 0.00 | 0.00 | 0.00 | 43 | 1010.1 |
| 20260503230722 | 67 | 212 | 6.0 | 8.0 | 0.00 | 0.00 | 0.00 | 43 | 1010.0 |
| 20260503230220 | 67 | 249 | 6.0 | 8.0 | 0.00 | 0.00 | 0.00 | 43 | 1010.0 |
| 20260503225718 | 67 | 165 | 3.0 | 5.0 | 0.00 | 0.00 | 0.00 | 43 | 1010.2 |
| 20260503225217 | 67 | 201 | 4.0 | 6.0 | 0.00 | 0.00 | 0.00 | 43 | 1010.2 |
| 20260503224715 | 67 | 218 | 5.0 | 6.0 | 0.00 | 0.00 | 0.00 | 43 | 1010.4 |
| 20260503224213 | 67 | 211 | 4.0 | 6.0 | 0.00 | 0.00 | 0.00 | 43 | 1010.5 |
| 20260503223710 | 67 | 190 | 11.0 | 14.0 | 0.00 | 0.00 | 0.00 | 42 | 1010.6 |
| 20260503223207 | 67 | 205 | 4.0 | 5.0 | 0.00 | 0.00 | 0.00 | 43 | 1010.5 |
| 20260503222704 | 67 | 226 | 4.0 | 6.0 | 0.00 | 0.00 | 0.00 | 43 | 1010.5 |
| 20260503222201 | 67 | 225 | 5.0 | 9.0 | 0.00 | 0.00 | 0.00 | 42 | 1010.9 |
| 20260503221700 | 67 | 212 | 10.0 | 14.0 | 0.00 | 0.00 | 0.00 | 42 | 1010.6 |
| 20260503221157 | 67 | 187 | 9.0 | 14.0 | 0.00 | 0.00 | 0.00 | 42 | 1010.9 |
| 20260503220654 | 67 | 225 | 5.0 | 7.0 | 0.00 | 0.00 | 0.00 | 42 | 1010.9 |
| 20260503220150 | 68 | 138 | 5.0 | 8.0 | 0.00 | 0.00 | 0.00 | 41 | 1011.1 |
| 20260503215647 | 68 | 220 | 12.0 | 20.0 | 0.00 | 0.00 | 0.00 | 41 | 1010.9 |
| 20260503215143 | 67 | 191 | 5.0 | 6.0 | 0.00 | 0.00 | 0.00 | 41 | 1011.1 |
| 20260503214643 | 67 | 189 | 12.0 | 18.0 | 0.00 | 0.00 | 0.00 | 40 | 1011.1 |
| 20260503214138 | 67 | 160 | 8.0 | 13.0 | 0.00 | 0.00 | 0.00 | 41 | 1010.8 |
| 20260503213632 | 67 | 173 | 5.0 | 7.0 | 0.00 | 0.00 | 0.00 | 41 | 1011.2 |
| 20260503213128 | 68 | 129 | 4.0 | 5.0 | 0.00 | 0.00 | 0.00 | 39 | 1010.9 |
| 20260503212625 | 68 | 172 | 2.0 | 3.0 | 0.00 | 0.00 | 0.00 | 39 | 1010.8 |
| 20260503212123 | 68 | 185 | 8.0 | 14.0 | 0.00 | 0.00 | 0.00 | 38 | 1011.3 |
| 20260503211620 | 67 | 172 | 4.0 | 6.0 | 0.00 | 0.00 | 0.00 | 39 | 1011.1 |
| 20260503211116 | 67 | 189 | 11.0 | 17.0 | 0.00 | 0.00 | 0.00 | 39 | 1011.3 |
| 20260503210612 | 67 | 191 | 8.0 | 13.0 | 0.00 | 0.00 | 0.00 | 39 | 1011.6 |
| 20260503210109 | 66 | 185 | 3.0 | 6.0 | 0.00 | 0.00 | 0.00 | 39 | 1011.4 |
| 20260503205605 | 66 | 224 | 9.0 | 11.0 | 0.00 | 0.00 | 0.00 | 39 | 1011.7 |
| 20260503205101 | 66 | 193 | 12.0 | 16.0 | 0.00 | 0.00 | 0.00 | 39 | 1011.8 |
| 20260503204558 | 65 | 254 | 4.0 | 6.0 | 0.00 | 0.00 | 0.00 | 41 | 1011.7 |
| 20260503204056 | 65 | 195 | 9.0 | 16.0 | 0.00 | 0.00 | 0.00 | 42 | 1012.0 |
| 20260503203552 | 64 | 188 | 4.0 | 5.0 | 0.00 | 0.00 | 0.00 | 43 | 1012.0 |
| 20260503203050 | 64 | 205 | 8.0 | 11.0 | 0.00 | 0.00 | 0.00 | 43 | 1012.0 |
| 20260503202547 | 64 | 220 | 9.0 | 11.0 | 0.00 | 0.00 | 0.00 | 43 | 1012.1 |
| 20260503202045 | 64 | 183 | 8.0 | 11.0 | 0.00 | 0.00 | 0.00 | 43 | 1012.6 |
| 20260503201543 | 65 | 185 | 11.0 | 17.0 | 0.00 | 0.00 | 0.00 | 43 | 1012.7 |
| 20260503201040 | 66 | 242 | 13.0 | 17.0 | 0.00 | 0.00 | 0.00 | 43 | 1012.8 |
| 20260503200536 | 64 | 202 | 8.0 | 10.0 | 0.00 | 0.00 | 0.00 | 47 | 1012.8 |
| 20260503200033 | 63 | 201 | 5.0 | 9.0 | 0.00 | 0.00 | 0.00 | 49 | 1012.8 |
| 20260503195530 | 64 | 230 | 3.0 | 3.0 | 0.00 | 0.00 | 0.00 | 49 | 1012.8 |
| 20260503195027 | 63 | 194 | 9.0 | 13.0 | 0.00 | 0.00 | 0.00 | 49 | 1012.9 |
| 20260503194525 | 63 | 151 | 11.0 | 15.0 | 0.00 | 0.00 | 0.00 | 48 | 1013.2 |
| 20260503194024 | 62 | 204 | 11.0 | 18.0 | 0.00 | 0.00 | 0.00 | 50 | 1013.1 |
| 20260503193521 | 61 | 212 | 9.0 | 17.0 | 0.00 | 0.00 | 0.00 | 50 | 1013.2 |
| 20260503193016 | 62 | 245 | 4.0 | 6.0 | 0.00 | 0.00 | 0.00 | 48 | 1013.3 |
| 20260503192512 | 61 | 201 | 6.0 | 8.0 | 0.00 | 0.00 | 0.00 | 49 | 1013.2 |
| 20260503192008 | 60 | 197 | 3.0 | 3.0 | 0.00 | 0.00 | 0.00 | 50 | 1013.4 |
| 20260503191506 | 60 | 210 | 7.0 | 10.0 | 0.00 | 0.00 | 0.00 | 50 | 1013.5 |
| 20260503191002 | 60 | 173 | 12.0 | 16.0 | 0.00 | 0.00 | 0.00 | 49 | 1013.4 |
| 20260503190459 | 59 | 189 | 8.0 | 16.0 | 0.00 | 0.00 | 0.00 | 52 | 1013.9 |
| 20260503185956 | 59 | 207 | 12.0 | 17.0 | 0.00 | 0.00 | 0.00 | 51 | 1013.8 |
| 20260503185452 | 58 | 235 | 8.0 | 13.0 | 0.00 | 0.00 | 0.00 | 52 | 1013.8 |
| 20260503184952 | 59 | 171 | 14.0 | 18.0 | 0.00 | 0.00 | 0.00 | 53 | 1014.0 |
| 20260503184448 | 58 | 140 | 6.0 | 9.0 | 0.00 | 0.00 | 0.00 | 55 | 1013.9 |
| 20260503183945 | 59 | 173 | 8.0 | 11.0 | 0.00 | 0.00 | 0.00 | 55 | 1014.0 |
| 20260503183442 | 57 | 240 | 7.0 | 10.0 | 0.00 | 0.00 | 0.00 | 56 | 1014.0 |
| 20260503182938 | 56 | 189 | 11.0 | 14.0 | 0.00 | 0.00 | 0.00 | 57 | 1014.1 |
| 20260503182437 | 55 | 175 | 11.0 | 15.0 | 0.00 | 0.00 | 0.00 | 58 | 1014.4 |
| 20260503181935 | 55 | 173 | 8.0 | 10.0 | 0.00 | 0.00 | 0.00 | 59 | 1014.6 |
| 20260503181432 | 55 | 203 | 10.0 | 17.0 | 0.00 | 0.00 | 0.00 | 59 | 1014.7 |
| 20260503180927 | 55 | 205 | 10.0 | 20.0 | 0.00 | 0.00 | 0.00 | 59 | 1015.0 |
| 20260503180427 | 55 | 103 | 4.0 | 7.0 | 0.00 | 0.00 | 0.00 | 60 | 1015.1 |
| 20260503175922 | 55 | 197 | 5.0 | 6.0 | 0.00 | 0.00 | 0.00 | 60 | 1015.4 |
| 20260503175421 | 55 | 207 | 9.0 | 14.0 | 0.00 | 0.00 | 0.00 | 60 | 1015.5 |
| 20260503174916 | 55 | 201 | 7.0 | 10.0 | 0.00 | 0.00 | 0.00 | 60 | 1015.8 |
| 20260503174414 | 55 | 183 | 7.0 | 10.0 | 0.00 | 0.00 | 0.00 | 60 | 1015.9 |
| 20260503173909 | 55 | 205 | 8.0 | 13.0 | 0.00 | 0.00 | 0.00 | 61 | 1016.0 |
| 20260503173405 | 54 | 253 | 7.0 | 7.0 | 0.00 | 0.00 | 0.00 | 63 | 1016.0 |
| 20260503172902 | 54 | 3 | 6.0 | 13.0 | 0.00 | 0.00 | 0.00 | 63 | 1016.1 |
| 20260503172400 | 54 | 197 | 3.0 | 5.0 | 0.00 | 0.00 | 0.00 | 65 | 1016.2 |
| 20260503171855 | 54 | 217 | 7.0 | 13.0 | 0.00 | 0.00 | 0.00 | 65 | 1016.6 |
| 20260503171352 | 53 | 176 | 4.0 | 6.0 | 0.00 | 0.00 | 0.00 | 66 | 1016.7 |
| 20260503170850 | 53 | 207 | 9.0 | 11.0 | 0.00 | 0.00 | 0.00 | 67 | 1016.5 |
| 20260503170346 | 52 | 221 | 3.0 | 3.0 | 0.00 | 0.00 | 0.00 | 70 | 1017.0 |
| 20260503150738 | 55 | 199 | 3.0 | 3.0 | 0.00 | 0.00 | 0.00 | 55 | 1017.5 |
| 20260503150234 | 55 | 224 | 6.0 | 9.0 | 0.00 | 0.00 | 0.00 | 55 | 1017.5 |
| 20260503140159 | 54 | 182 | 4.0 | 6.0 | 0.00 | 0.00 | 0.00 | 53 | 1018.1 |
| 20260503131129 | 52 | 154 | 6.0 | 8.0 | 0.00 | 0.00 | 0.00 | 54 | 1018.4 |
| 20260503130626 | 52 | 188 | 3.0 | 5.0 | 0.00 | 0.00 | 0.00 | 54 | 1018.6 |
| 20260503130124 | 52 | 155 | 3.0 | 3.0 | 0.00 | 0.00 | 0.00 | 53 | 1018.6 |
| 20260503110516 | 49 | 164 | 4.0 | 6.0 | 0.00 | 0.00 | 0.00 | 55 | 1018.0 |
| 20260503090408 | 46 | 176 | 3.0 | 3.0 | 0.00 | 0.00 | 0.00 | 55 | 1018.6 |
| 20260503081335 | 46 | 206 | 3.0 | 5.0 | 0.00 | 0.00 | 0.00 | 56 | 1018.9 |
| 20260503080832 | 46 | 195 | 1.0 | 1.0 | 0.00 | 0.00 | 0.00 | 57 | 1018.9 |
| 20260503080329 | 46 | 180 | 1.0 | 2.0 | 0.00 | 0.00 | 0.00 | 56 | 1018.9 |
| 20260503072805 | 46 | 193 | 2.0 | 2.0 | 0.00 | 0.00 | 0.00 | 56 | 1019.1 |
| 20260503072305 | 46 | 208 | 2.0 | 2.0 | 0.00 | 0.00 | 0.00 | 56 | 1019.0 |
| 20260503071758 | 46 | 201 | 1.0 | 1.0 | 0.00 | 0.00 | 0.00 | 56 | 1019.2 |
| 20260503071255 | 46 | 176 | 1.0 | 2.0 | 0.00 | 0.00 | 0.00 | 56 | 1019.0 |
| 20260503070752 | 46 | 187 | 1.0 | 2.0 | 0.00 | 0.00 | 0.00 | 56 | 1019.1 |
| 20260503070250 | 46 | 204 | 1.0 | 2.0 | 0.00 | 0.00 | 0.00 | 56 | 1019.3 |
| 20260503060215 | 46 | 190 | 1.0 | 2.0 | 0.00 | 0.00 | 0.00 | 57 | 1019.7 |
| 20260503054702 | 46 | 205 | 1.0 | 1.0 | 0.00 | 0.00 | 0.00 | 58 | 1020.0 |
| 20260503054159 | 46 | 183 | 1.0 | 1.0 | 0.00 | 0.00 | 0.00 | 58 | 1019.8 |
| 20260503053657 | 46 | 196 | 2.0 | 2.0 | 0.00 | 0.00 | 0.00 | 57 | 1019.7 |
| 20260503053155 | 47 | 201 | 1.0 | 1.0 | 0.00 | 0.00 | 0.00 | 57 | 1019.7 |
| 20260503052651 | 46 | 189 | 1.0 | 1.0 | 0.00 | 0.00 | 0.00 | 56 | 1019.8 |
| 20260503052148 | 47 | 189 | 0.0 | 0.0 | 0.00 | 0.00 | 0.00 | 57 | 1020.0 |
| 20260503051643 | 47 | 181 | 3.0 | 3.0 | 0.00 | 0.00 | 0.00 | 56 | 1019.9 |
| 20260503051141 | 47 | 191 | 1.0 | 1.0 | 0.00 | 0.00 | 0.00 | 56 | 1020.0 |
| 20260503050637 | 46 | 197 | 0.0 | 0.0 | 0.00 | 0.00 | 0.00 | 57 | 1020.1 |
| 20260503050134 | 47 | 189 | 0.0 | 0.0 | 0.00 | 0.00 | 0.00 | 56 | 1020.3 |
| 20260503045632 | 47 | 199 | 1.0 | 1.0 | 0.00 | 0.00 | 0.00 | 57 | 1020.2 |
| 20260503045129 | 47 | 199 | 1.0 | 1.0 | 0.00 | 0.00 | 0.00 | 57 | 1020.3 |
| 20260503044625 | 47 | 194 | 1.0 | 2.0 | 0.00 | 0.00 | 0.00 | 57 | 1020.4 |
| 20260503044123 | 47 | 202 | 0.0 | 1.0 | 0.00 | 0.00 | 0.00 | 57 | 1020.3 |
| 20260503043619 | 47 | 191 | 1.0 | 1.0 | 0.00 | 0.00 | 0.00 | 56 | 1020.2 |
| 20260503043116 | 47 | 193 | 0.0 | 0.0 | 0.00 | 0.00 | 0.00 | 57 | 1020.2 |
| 20260503042613 | 48 | 204 | 1.0 | 2.0 | 0.00 | 0.00 | 0.00 | 55 | 1020.4 |
| 20260503042109 | 47 | 186 | 0.0 | 1.0 | 0.00 | 0.00 | 0.00 | 57 | 1020.2 |
| 20260503041605 | 47 | 199 | 0.0 | 0.0 | 0.00 | 0.00 | 0.00 | 58 | 1020.3 |
| 20260503041104 | 47 | 196 | 2.0 | 3.0 | 0.00 | 0.00 | 0.00 | 57 | 1020.3 |
| 20260503040600 | 47 | 188 | 0.0 | 0.0 | 0.00 | 0.00 | 0.00 | 59 | 1020.4 |
| 20260503040057 | 47 | 178 | 1.0 | 1.0 | 0.00 | 0.00 | 0.00 | 57 | 1020.4 |
| 20260503035554 | 47 | 182 | 0.0 | 1.0 | 0.00 | 0.00 | 0.00 | 58 | 1020.2 |
| 20260503035052 | 47 | 182 | 1.0 | 1.0 | 0.00 | 0.00 | 0.00 | 59 | 1020.3 |
| 20260503034549 | 47 | 191 | 0.0 | 0.0 | 0.00 | 0.00 | 0.00 | 59 | 1020.5 |
| 20260503034046 | 46 | 192 | 0.0 | 0.0 | 0.00 | 0.00 | 0.00 | 61 | 1020.3 |
| 20260503033543 | 47 | 190 | 1.0 | 1.0 | 0.00 | 0.00 | 0.00 | 59 | 1020.2 |
| 20260503033041 | 47 | 198 | 0.0 | 1.0 | 0.00 | 0.00 | 0.00 | 59 | 1020.5 |
| 20260503032539 | 46 | 192 | 1.0 | 1.0 | 0.00 | 0.00 | 0.00 | 62 | 1020.3 |
| 20260503032037 | 45 | 171 | 1.0 | 1.0 | 0.00 | 0.00 | 0.00 | 66 | 1020.5 |
| 20260503031535 | 44 | 53 | 0.0 | 0.0 | 0.00 | 0.00 | 0.00 | 69 | 1020.7 |
| 20260503031031 | 44 | 53 | 0.0 | 0.0 | 0.00 | 0.00 | 0.00 | 72 | 1020.6 |
| 20260503030527 | 44 | 53 | 0.0 | 0.0 | 0.00 | 0.00 | 0.00 | 75 | 1020.6 |
| 20260503030025 | 43 | 53 | 0.0 | 0.0 | 0.00 | 0.00 | 0.00 | 78 | 1020.5 |
| 20260503025521 | 44 | 53 | 0.0 | 0.0 | 0.00 | 0.00 | 0.00 | 78 | 1020.8 |
| 20260503025020 | 44 | 53 | 0.0 | 0.0 | 0.00 | 0.00 | 0.00 | 78 | 1020.7 |
| 20260503024515 | 44 | 53 | 0.0 | 0.0 | 0.00 | 0.00 | 0.00 | 78 | 1020.7 |
| 20260503024013 | 44 | 53 | 0.0 | 0.0 | 0.00 | 0.00 | 0.00 | 78 | 1020.6 |
| 20260503023509 | 44 | 53 | 0.0 | 0.0 | 0.00 | 0.00 | 0.00 | 81 | 1020.5 |
| 20260503023007 | 44 | 53 | 0.0 | 0.0 | 0.00 | 0.00 | 0.00 | 81 | 1020.5 |
| 20260503022502 | 44 | 53 | 0.0 | 0.0 | 0.00 | 0.00 | 0.00 | 80 | 1020.5 |
| 20260503021957 | 44 | 53 | 0.0 | 0.0 | 0.00 | 0.00 | 0.00 | 80 | 1020.5 |
| 20260503021454 | 44 | 53 | 0.0 | 0.0 | 0.00 | 0.00 | 0.00 | 80 | 1020.6 |
| 20260503020951 | 45 | 53 | 0.0 | 0.0 | 0.00 | 0.00 | 0.00 | 80 | 1020.6 |
| 20260503020449 | 45 | 53 | 0.0 | 0.0 | 0.00 | 0.00 | 0.00 | 79 | 1020.6 |
| 20260503015945 | 45 | 53 | 0.0 | 0.0 | 0.00 | 0.00 | 0.00 | 79 | 1020.7 |
| 20260503015442 | 45 | 53 | 0.0 | 0.0 | 0.00 | 0.00 | 0.00 | 78 | 1020.5 |
| 20260503014938 | 46 | 53 | 0.0 | 0.0 | 0.00 | 0.00 | 0.00 | 78 | 1020.7 |
| 20260503014435 | 46 | 53 | 0.0 | 0.0 | 0.00 | 0.00 | 0.00 | 78 | 1020.2 |
| 20260503013933 | 46 | 53 | 0.0 | 0.0 | 0.00 | 0.00 | 0.00 | 77 | 1020.2 |
| 20260503013430 | 46 | 53 | 0.0 | 0.0 | 0.00 | 0.00 | 0.00 | 77 | 1020.4 |
| 20260503012927 | 46 | 53 | 0.0 | 0.0 | 0.00 | 0.00 | 0.00 | 75 | 1020.3 |
| 20260503012425 | 46 | 53 | 0.0 | 0.0 | 0.00 | 0.00 | 0.00 | 75 | 1020.6 |
| 20260503011921 | 47 | 53 | 0.0 | 0.0 | 0.00 | 0.00 | 0.00 | 74 | 1020.4 |
| 20260503011418 | 47 | 53 | 0.0 | 0.0 | 0.00 | 0.00 | 0.00 | 74 | 1020.3 |
| 20260503010915 | 47 | 53 | 0.0 | 0.0 | 0.00 | 0.00 | 0.00 | 73 | 1020.5 |
| 20260503010412 | 47 | 53 | 0.0 | 0.0 | 0.00 | 0.00 | 0.00 | 72 | 1020.4 |
| 20260503005909 | 48 | 53 | 0.0 | 0.0 | 0.00 | 0.00 | 0.00 | 71 | 1020.5 |
| 20260503005407 | 48 | 53 | 0.0 | 0.0 | 0.00 | 0.00 | 0.00 | 70 | 1020.5 |
| 20260503004902 | 48 | 53 | 0.0 | 0.0 | 0.00 | 0.00 | 0.00 | 69 | 1020.4 |
| 20260503004400 | 48 | 176 | 0.0 | 0.0 | 0.00 | 0.00 | 0.00 | 69 | 1020.5 |
| 20260503003857 | 49 | 176 | 0.0 | 0.0 | 0.00 | 0.00 | 0.00 | 69 | 1020.6 |
| 20260503003354 | 49 | 176 | 0.0 | 1.0 | 0.00 | 0.00 | 0.00 | 68 | 1020.6 |
| 20260503002851 | 49 | 176 | 0.0 | 0.0 | 0.00 | 0.00 | 0.00 | 68 | 1020.6 |
| 20260503002348 | 49 | 212 | 1.0 | 1.0 | 0.00 | 0.00 | 0.00 | 68 | 1020.5 |
| 20260503001844 | 49 | 177 | 0.0 | 1.0 | 0.00 | 0.00 | 0.00 | 69 | 1020.5 |
| 20260503001341 | 50 | 338 | 1.0 | 2.0 | 0.00 | 0.00 | 0.00 | 68 | 1020.6 |